(48269) = 1995 QK14 = 2000 AV189 = 2002 AX166

Discovered at Socorro on 2002-01-13 by LINEAR.

Orbit

Orbit type: Jupiter Trojan

Note: WebGL enabled browser required.

epoch2024-03-31.0
epoch JD2460400.5
perihelion date2027-01-05.91864
perihelion JD2461411.41864
argument of perihelion (°)40.81019
ascending node (°)162.57036
inclination (°)15.74552
eccentricity0.0445939
perihelion distance (AU)4.9376806
Tisserand w.r.t. Jupiter2.9
ΔV w.r.t. Earth (km/sec)13.2
semimajor axis (AU)5.1681484
mean anomaly (°)275.19576
mean daily motion (°/day)0.08388830
aphelion distance (AU)5.399
period (years)11.75
P-vector [x]-0.91054371
P-vector [y]-0.41316982
P-vector [z]0.01417201
Q-vector [x]0.40534330
Q-vector [y]-0.89898594
Q-vector [z]-0.16589483
absolute magnitude12.23
phase slope0.15
uncertainty0
referenceMPEC 2024-C181
observations used1001
oppositions26
arc length (days)16005
first opposition used1980
last opposition used2024
residual rms (arc-secs)0.69
perturbers coarse indicatorM-v
perturbers precise indicator003Ek
first observation date used1980-03-21.0
last observation date used2024-01-15.0
computer nameMPCLINUX
JD of orbit computation2456937.344392
perihelion JD uncertainty (days)8.8443E-04
argument of perihelion uncertainty (°)7.6436E-05
ascending node uncertainty (°)1.8152E-05
inclination uncertainty (°)8.6599E-06
eccentricity uncertainty 7.6660E-08
perihelion distance uncertainty (AU)4.4067E-07
Minimum Orbit Intersection Distances (in AU)
for orbit epoch: 2460400.5, reference: E2024-CI1
Mercury4.51125
Venus4.22218
Earth3.95307
Mars3.3059
Jupiter0.36682
Saturn4.04193
Uranus13.4468
Neptune24.4944

Observations

1026 total observations over interval: 1980 03 21.59633 – 2024 01 15.438804
These data are available for download (format description).

Date (UT) J2000 RA J2000 Dec Magn Location Ref
1980 03 21.59633 14 11 09.52 +00 36 33.4   260 – Siding Spring Observatory-DSS MPS 61193
1980 03 21.64495 14 11 08.63 +00 36 46.9   260 – Siding Spring Observatory-DSS MPS 61193
1982 08 19.38343 18 23 57.80 -07 49 20.3   260 – Siding Spring Observatory-DSS MPS 61193
1982 08 19.42163 18 23 57.46 -07 49 28.7   260 – Siding Spring Observatory-DSS MPS 61193
1991 04 17.21528 11 55 02.64 +07 35 49.8   261 – Palomar Mountain-DSS MPS 61193
1991 04 17.25347 11 55 01.83 +07 35 57.0   261 – Palomar Mountain-DSS MPS 61193
1995 08 22.29727 21 27 50.78 -07 56 59.3 19.4 V 691 – Steward Observatory, Kitt Peak-Spacewatch MPS 32119
1995 08 22.31837 21 27 50.17 -07 57 04.4 19.2 V 691 – Steward Observatory, Kitt Peak-Spacewatch MPS 32119
1995 08 22.34048 21 27 49.55 -07 57 10.0 19.4 V 691 – Steward Observatory, Kitt Peak-Spacewatch MPS 32119
1995 08 27.24656 21 25 36.18 -08 17 20.0 19.1 V 691 – Steward Observatory, Kitt Peak-Spacewatch MPS 32119
1995 08 27.26797 21 25 35.61 -08 17 25.5   691 – Steward Observatory, Kitt Peak-Spacewatch MPS 32119
1995 08 27.28899 21 25 35.04 -08 17 30.7   691 – Steward Observatory, Kitt Peak-Spacewatch MPS 32119
2000 01 08.22718 05 36 34.25 +04 57 57.7 19.1   704 – Lincoln Laboratory ETS, New Mexico MPS 9438
2000 01 08.24224 05 36 33.83 +04 57 59.2 19.5   704 – Lincoln Laboratory ETS, New Mexico MPS 9438
2000 01 08.27305 05 36 32.92 +04 58 02.4 19.3   704 – Lincoln Laboratory ETS, New Mexico MPS 9438
2000 01 08.28814 05 36 32.46 +04 58 04.1 19.2   704 – Lincoln Laboratory ETS, New Mexico MPS 9438
2000 01 11.22702 05 35 12.96 +05 03 21.0 18.8   704 – Lincoln Laboratory ETS, New Mexico MPS 9438
2000 01 11.25692 05 35 12.21 +05 03 24.8 19.8   704 – Lincoln Laboratory ETS, New Mexico MPS 9438
2000 01 11.27195 05 35 11.79 +05 03 27.3 19.6   704 – Lincoln Laboratory ETS, New Mexico MPS 9438
2000 01 11.28675 05 35 11.32 +05 03 29.5 19.6   704 – Lincoln Laboratory ETS, New Mexico MPS 9438
2001 01 21.32460 07 58 26.32 +07 08 34.0 19.0   704 – Lincoln Laboratory ETS, New Mexico MPS 52548
2001 01 21.33979 07 58 25.81 +07 08 37.6 18.9   704 – Lincoln Laboratory ETS, New Mexico MPS 52548
2001 01 21.35498 07 58 25.31 +07 08 39.2 19.1   704 – Lincoln Laboratory ETS, New Mexico MPS 52548
2001 01 21.37067 07 58 24.85 +07 08 42.5 19.5   704 – Lincoln Laboratory ETS, New Mexico MPS 52548
2001 01 21.38563 07 58 24.37 +07 08 45.7 19.1   704 – Lincoln Laboratory ETS, New Mexico MPS 52548
2002 01 13.45596 10 37 44.39 +04 35 49.5 19.2   704 – Lincoln Laboratory ETS, New Mexico MPS 47519
2002 01 13.47136 10 37 44.25 +04 35 52.0 19.3   704 – Lincoln Laboratory ETS, New Mexico MPS 47519
2002 01 13.50217 10 37 43.87 +04 35 56.6 19.8   704 – Lincoln Laboratory ETS, New Mexico MPS 47519
2002 01 13.51760 10 37 43.59 +04 35 57.6 19.4   704 – Lincoln Laboratory ETS, New Mexico MPS 47519
2002 01 19.45948 10 36 18.66 +04 51 36.8 18.8   704 – Lincoln Laboratory ETS, New Mexico MPS 47519
2002 01 19.47480 10 36 18.37 +04 51 39.4 19.0   704 – Lincoln Laboratory ETS, New Mexico MPS 47519
2002 01 19.49010 10 36 18.09 +04 51 42.1 19.1   704 – Lincoln Laboratory ETS, New Mexico MPS 47519
2002 01 19.50541 10 36 17.88 +04 51 44.7 18.6   704 – Lincoln Laboratory ETS, New Mexico MPS 47519
2002 01 19.52073 10 36 17.59 +04 51 46.8 18.9   704 – Lincoln Laboratory ETS, New Mexico MPS 47519
2002 01 22.30908 10 35 29.60 +05 00 07.9 19.0   704 – Lincoln Laboratory ETS, New Mexico MPS 52548
2002 01 22.32402 10 35 29.40 +05 00 10.4 19.5   704 – Lincoln Laboratory ETS, New Mexico MPS 52548
2002 01 22.33895 10 35 28.94 +05 00 13.7 19.8   704 – Lincoln Laboratory ETS, New Mexico MPS 52548
2002 01 22.35391 10 35 28.73 +05 00 18.4 19.6   704 – Lincoln Laboratory ETS, New Mexico MPS 52548
2002 01 22.36888 10 35 28.49 +05 00 21.2 19.6   704 – Lincoln Laboratory ETS, New Mexico MPS 52548
2002 01 26.50253 10 34 08.17 +05 13 56.2 19.4   644 – Palomar Mountain/NEAT MPS 52548
2002 01 26.51304 10 34 07.94 +05 13 58.4 19.9   644 – Palomar Mountain/NEAT MPS 52548
2002 01 26.52339 10 34 07.69 +05 14 00.5 20.1   644 – Palomar Mountain/NEAT MPS 52548
2002 02 06.44904 10 29 51.94 +05 55 50.1 18.7   644 – Palomar Mountain/NEAT MPS 52548
2002 02 06.45945 10 29 51.66 +05 55 52.7 18.5   644 – Palomar Mountain/NEAT MPS 52548
2002 02 06.46979 10 29 51.39 +05 55 55.1 18.7   644 – Palomar Mountain/NEAT MPS 52548
2002 02 07.31852 10 29 29.39 +05 59 28.8 18.7   704 – Lincoln Laboratory ETS, New Mexico MPS 50014
2002 02 07.33456 10 29 28.99 +05 59 32.4 19.1   704 – Lincoln Laboratory ETS, New Mexico MPS 50014
2002 02 07.34130 10 29 28.72 +05 59 35.2 18.7 R 699 – Lowell Observatory-LONEOS MPS 52548
2002 02 07.34912 10 29 28.58 +05 59 36.6 19.6   704 – Lincoln Laboratory ETS, New Mexico MPS 50014
2002 02 07.36364 10 29 28.21 +05 59 40.2 19.3   704 – Lincoln Laboratory ETS, New Mexico MPS 50014
2002 02 07.36641 10 29 28.14 +05 59 40.6   699 – Lowell Observatory-LONEOS MPS 52548
2002 02 07.37943 10 29 27.81 +05 59 44.4 19.1   704 – Lincoln Laboratory ETS, New Mexico MPS 50014
2002 02 07.39153 10 29 27.42 +05 59 46.8   699 – Lowell Observatory-LONEOS MPS 52548
2002 02 07.41670 10 29 26.79 +05 59 53.9   699 – Lowell Observatory-LONEOS MPS 52548
2002 02 11.31260 10 27 41.98 +06 16 42.7 18.7   704 – Lincoln Laboratory ETS, New Mexico MPS 50014
2002 02 11.32685 10 27 41.58 +06 16 46.3 19.0   704 – Lincoln Laboratory ETS, New Mexico MPS 50014
2002 02 11.34108 10 27 41.16 +06 16 50.3 19.0   704 – Lincoln Laboratory ETS, New Mexico MPS 50014
2002 02 11.35533 10 27 40.77 +06 16 53.7 18.9   704 – Lincoln Laboratory ETS, New Mexico MPS 50014
2002 02 11.36959 10 27 40.33 +06 16 57.2 18.9   704 – Lincoln Laboratory ETS, New Mexico MPS 50014
2002 02 14.52063 10 26 12.46 +06 31 05.4 20.2   608 – Haleakala-AMOS MPS 52548
2002 02 14.53115 10 26 12.15 +06 31 08.6 19.5   608 – Haleakala-AMOS MPS 52548
2002 02 14.54163 10 26 11.84 +06 31 11.2 19.9   608 – Haleakala-AMOS MPS 52548
2002 02 16.35297 10 25 20.26 +06 39 27.5 18.4   704 – Lincoln Laboratory ETS, New Mexico MPS 52548
2002 02 16.36897 10 25 19.73 +06 39 31.9 18.1   704 – Lincoln Laboratory ETS, New Mexico MPS 52548
2002 02 16.40292 10 25 18.82 +06 39 41.2 18.2   704 – Lincoln Laboratory ETS, New Mexico MPS 52548
2002 02 16.51028 10 25 15.73 +06 40 10.2 18.5   644 – Palomar Mountain/NEAT MPS 52548
2002 02 16.52192 10 25 15.38 +06 40 13.4 18.7   644 – Palomar Mountain/NEAT MPS 52548
2002 02 16.53238 10 25 15.08 +06 40 16.4 18.6   644 – Palomar Mountain/NEAT MPS 52548
2002 02 21.31583 10 22 56.80 +07 02 34.9 18.3   704 – Lincoln Laboratory ETS, New Mexico MPS 52548
2002 02 21.32274 10 22 56.58 +07 02 37.4 19.0 V 691 – Steward Observatory, Kitt Peak-Spacewatch MPS 52548
2002 02 21.33016 10 22 56.38 +07 02 39.6 18.5   704 – Lincoln Laboratory ETS, New Mexico MPS 52548
2002 02 21.34448 10 22 55.93 +07 02 42.9 18.6   704 – Lincoln Laboratory ETS, New Mexico MPS 52548
2002 02 21.34466 10 22 55.91 +07 02 43.7 19.0 V 691 – Steward Observatory, Kitt Peak-Spacewatch MPS 52548
2002 02 21.35885 10 22 55.54 +07 02 47.3 18.9   704 – Lincoln Laboratory ETS, New Mexico MPS 52548
2002 02 21.36600 10 22 55.28 +07 02 49.6 19.0 V 691 – Steward Observatory, Kitt Peak-Spacewatch MPS 52548
2002 02 21.37340 10 22 55.07 +07 02 50.9 18.4   704 – Lincoln Laboratory ETS, New Mexico MPS 52548
2002 03 03.23263 10 18 09.38 +07 49 40.8 18.2 R 699 – Lowell Observatory-LONEOS MPS 52548
2002 03 03.24832 10 18 08.93 +07 49 45.7   699 – Lowell Observatory-LONEOS MPS 52548
2002 03 03.26401 10 18 08.58 +07 49 49.6   699 – Lowell Observatory-LONEOS MPS 52548
2002 03 03.27973 10 18 08.07 +07 49 54.6   699 – Lowell Observatory-LONEOS MPS 52548
2002 03 04.25624 10 17 40.33 +07 54 31.7 18.0 R 703 – Catalina Sky Survey MPS 52548
2002 03 04.26463 10 17 40.10 +07 54 36.6 18.4 R 703 – Catalina Sky Survey MPS 52548
2002 03 04.27303 10 17 39.76 +07 54 37.0 17.9 R 703 – Catalina Sky Survey MPS 52548
2002 03 04.28145 10 17 39.63 +07 54 40.7 18.7 R 703 – Catalina Sky Survey MPS 52548
2002 03 05.37222 10 17 08.84 +07 59 48.9 18.5   644 – Palomar Mountain/NEAT MPS 52548
2002 03 05.39317 10 17 08.24 +07 59 54.9 18.6   644 – Palomar Mountain/NEAT MPS 52548
